Погода в Санкт-Петербурге

Россия / Санкт-Петербург и Ленинградская область     59°56′20″N   30°18′56″E
темп.,
°C
ветер,
м/с
пор.,
м/с
влажн.,
%
обл.,
%
осадки,
мм/ч
давл.,
гПа
погр.,
м
3 марта, ср
ср300:00−1зсз511880 0.0 1018384
03:00−1зсз511900 0.0 1018438
06:00−2з4109432 0.0 1015368
09:00−2з5119248 0.0 1015480
12:000з6118681 0.0 1013569
15:00+1з7147891 0.0 1010841
18:00+1з71395100 0.4 1006756
21:00+1зсз61296100 1.1 1003799
4 марта, чт
чт400:000сз5118599 2.1 1002839
03:00−3зсз4117750 2.1 1003534
06:00−4зсз49850 0.0 1003433
09:00−4зсз37870 0.0 1003372
12:00−2зсз357847 0.0 1003568
15:00−3сз468372 0.2 1004689
18:00−4ссз4877100 0.1 1004896
21:00−5сз3108086 0.1 1005696
5 марта, пт
пт500:00−6сз378553 0.0 1006580
03:00−7сз378670 0.0 1007574
06:00−8сз478498 0.0 1008510
09:00−9сз378496 0.0 1009465
12:00−7сз357698 0.0 1011676
15:00−6ссз346999 0.1 1013974
18:00−6сз247195 0.0 1014235
21:00−8зсз248069 0.0 1016133
6 марта, сб
сб600:00−8зсз248759 0.0 1017143
03:00−9зсз359356 0.0 1017177
06:00−9з25946 0.0 1016173
09:00−8з37883 0.0 1015330
12:00−4зюз486946 0.0 1013865
15:00−3юз6106873 0.0 10091009
18:00−3юз81589100 0.6 10021272
21:00−1зюз81795100 3.3 9951261
7 марта, вс
вс700:000з101894100 3.6 9891292
03:00−4зсз9146495 3.9 9901100
06:00−9зсз6166133 0.0 9901780
09:00−9зсз6136421 0.0 9891542
12:00−9з7128899 0.3 9881070
15:00−4с5875100 1.1 9911302
18:00−7ссз3886100 0.1 996633
21:00−8с61283100 0.4 1001792